Погода в Покровке

Россия / Оренбургская область     53°46′51″N   53°19′22″E
темп.,
°C
ветер,
м/с
пор.,
м/с
влажн.,
%
обл.,
%
осадки,
мм/ч
давл.,
гПа
погр.,
м
22 апреля, чт
чт2223:00+8ю71544100 0.1 1027887
02:00+4ю71476100 0.8 1028884
05:00+3ююв71596100 3.4 1028737
08:00+5ю51181100 0.6 1029644
11:00+8ю61057100 0.6 1028973
14:00+6ююв61078100 0.4 1029724
17:00+6ююв71087100 2.4 1029699
20:00+4ююв71291100 0.0 1029637
23 апреля, пт
пт2323:00+3ююв51096100 0.0 1029529
02:00+3ююв5997100 0.0 1029493
05:00+3юв3797100 0.0 1029287
08:00+4в2495100 0.0 1028187
11:00+8вюв5670100 0.0 1027688
14:00+11юв5655100 0.0 1026898
17:00+13юв4648100 0.0 10241427
20:00+11ююв5964100 0.0 1023322
24 апреля, сб
сб2423:00+8ююв5888100 0.3 1023483
02:00+7вюв3690100 2.4 1021988
05:00+7в5893100 4.6 10181002
08:00+6вюв6891100 1.7 10161021
11:00+6вюв5791100 2.8 1015952
14:00+6вюв4692100 0.9 1014906
17:00+6юв3591100 1.8 1013378
20:00+6юв2495100 0.3 1013183
25 апреля, вс
вс2523:00+6ю259798 0.6 1013226
02:00+6ю3796100 0.0 1013195
05:00+6ююв41090100 0.0 1012294
08:00+7ю71489100 0.4 1010680
11:00+8зюз9127478 3.1 10111245
14:00+8зюз81265100 0.1 10141515
17:00+10зюз8115948 0.5 10151669
20:00+8зюз610684 0.3 1016469
26 апреля, пн
пн2623:00+5ююз34792 0.3 101766
02:00+4ююз368178 0.0 101892
05:00+3юз348380 0.0 101870
08:00+5зюз367980 0.0 1019244
11:00+8з4555100 0.0 1019924
14:00+11з343790 0.0 10191456
17:00+11з223597 0.0 10181629
20:00+10ссв0047100 0.0 101712